Karnaukhivka

Ukraine / Dnipropetrovsk Region     48˚28′11″N   34˚43′52″E
temp.,
°C
wind,
m/s
gust,
m/s
humid.,
%
clouds,
%
prec.,
mm/h
press.,
hPa
HPBL,
m
29 november, sun
sun2923:00+8˚sse61186100 0.1 1019430
02:00+8˚sse61183100 0.1 1019412
05:00+8˚sse51183100 0.1 1019469
08:00+8˚sse61184100 0.1 1020605
11:00+8˚sse5978100 0.0 1021644
14:00+9˚sse4780100 0.0 1021618
17:00+8˚sse3786100 0.1 1022293
20:00+8˚se61082100 0.3 1022422
30 november, mon
mon3023:00+6˚se5982100 0.1 1022339
02:00+6˚se4885100 0.1 1022289
05:00+5˚se4987100 0.0 1022290
08:00+5˚se41081100 0.0 1023360
11:00+6˚se4782100 0.0 1023496
14:00+7˚ese4776100 0.0 1023580
17:00+5˚ese4881100 0.0 1023445
20:00+4˚ese3880100 0.0 1023340
1 december, tue
tue123:00+3˚ene3584100 0.0 1023150
02:00+4˚ene3682100 0.0 1024207
05:00+5˚e4777100 0.0 1024427
08:00+4˚e4875100 0.0 1025546
11:00+4˚e576799 0.0 1025645
14:00+4˚e576799 0.0 1025769
17:00+4˚e4868100 0.0 1025833
20:00+4˚ene5870100 0.0 1026819
2 december, wed
wed223:00+2˚e5983100 0.0 1026699
02:00+1˚e5994100 0.1 1026555
05:00+1˚e5895100 0.2 1026505
08:00+2˚ese587799 0.3 1026658
11:00+2˚ese5775100 0.0 1027759
14:00+2˚e4673100 0.0 1026705
17:00+2˚e5873100 0.0 1026637
20:00+2˚ese5975100 0.0 1027636
3 december, thu
thu323:00+2˚ese5875100 0.0 1027591
02:00+1˚ese5893100 0.1 1027477
05:00+1˚ese5893100 0.3 1027492
08:00+2˚ese5982100 0.4 1027579
11:00+3˚se5880100 0.0 1027588
14:00+3˚ese4779100 0.0 1027541
17:00+3˚ese477697 0.0 1027555
20:00+3˚se467898 0.0 1027550